Home > Time Zones > World Clock > Weather > Chad > Sarh > Past weeks

Flag for Chad Weather past 2 weeks in Sarh, Chad

Now
88 °F

Clear.


Feels Like: 88 °F
Forecast: 75 / 101 °F
Wind: No wind

Location: Sarh Airport

Current Time: Apr 26, 2015 at 1:03:57 AM

Latest Report: Apr 26, 2015 at 12:00 AM


Visibility: 10 mi

Pressure: 29.86 "Hg

Humidity: 43%

Dew point: 63 °F

Location of SarhLocation

Historic Weather in Sarh — Graph

°F

Sarh temperature yesterday

Maximum temperature yesterday: 104 °F (at 2:00 PM)
Minimum temperature yesterday: 79 °F (at 4:00 AM)
Average temperature yesterday: 92 °F

Past Weeks' High & Low Weather Summary

 TemperatureHumidityPressure
High106 °F (Apr 21, 2:00 PM)69% (Apr 24, 6:00 AM)30.04 "Hg (Apr 24, 6:00 AM)
Low70 °F (Apr 16, 6:00 AM)4% (Apr 17, 10:00 AM)29.71 "Hg (Apr 24, 4:00 AM)
Average91 °F28%29.85 "Hg
* Reported Apr 11 10:00 AM — Midnight between Apr 25 and Apr 26, Sarh, Weather by CustomWeather, © 2015

Note: Actual official high and low records may vary slightly from our data, if they occured in-between our weather recording intervals... More about our weather records

Advertising

Sarh weather history for previous 24 hours

 ConditionsComfort  
Time TempWeatherWind HumidityBarometerVisibility
12:00 AM
Sun, Apr 26
88 °FClear.No wind43%29.86 "Hg10 mi
11:00 PM
Sat, Apr 25
90 °FClear.7 mph29%29.86 "Hg10 mi
10:00 PM86 °FClear.No wind33%29.83 "Hg10 mi
9:00 PM88 °FClear.No wind31%29.83 "Hg10 mi
7:00 PM93 °FClear.No wind23%29.80 "Hg10 mi
6:00 PM99 °FClear.No wind17%29.77 "Hg10 mi
4:00 PM104 °FSunny.2 mph11%29.77 "Hg10 mi
3:00 PM104 °FSunny.7 mph13%29.80 "Hg10 mi
2:00 PM104 °FSunny.5 mph16%29.80 "Hg10 mi
1:00 PM102 °FSunny.9 mph23%29.86 "Hg10 mi
12:00 PM99 °FSunny.12 mph27%29.92 "Hg10 mi
11:00 AM97 °FSunny.5 mph34%29.92 "Hg10 mi
10:00 AM95 °FPassing clouds.12 mph34%29.92 "HgN/A
9:00 AM91 °FSunny.5 mph38%29.86 "Hg10 mi
8:00 AM88 °FSunny.7 mph38%29.86 "Hg10 mi
7:00 AM82 °FSunny.5 mph48%29.83 "Hg10 mi
6:00 AM81 °FSunny.No wind54%29.80 "Hg10 mi
4:00 AM79 °FClear.No wind58%29.80 "Hg10 mi
1:00 AM82 °FClear.No wind48%29.83 "Hg10 mi
Weather by CustomWeather, © 2015

See weather overviewHow to use our weather pages